Probability
1 1 0 0 0 0 0 0 0 0 0 0 0 0 0 0 0 0 0 0 0 0 0 1 2 2 1 0 0 0 0 0 0 0 0 0 0 0 0 0 0 1 0 0 0 0 0 0 0
1 0 0 0 0 0 0 0 0 0 0 0 0 0 0 0 0 0 0 0 0 0 0 1 2 3 1 1 1 0 0 0 0 0 0 0 0 0 0 0 1 1 1 0 0 0 0 0 0
0 0 0 0 0 0 0 0 0 0 0 0 0 0 0 0 0 0 0 0 0 0 0 1 2 3 3 2 1 0 0 0 0 0 0 0 0 0 0 1 2 2 1 0 0 0 0 0 0
0 0 0 0 0 0 0 0 0 0 0 0 0 0 0 0 0 0 0 0 0 0 0 1 2 3 3 2 1 0 0 0 0 0 0 0 0 0 1 2 2 2 1 0 0 0 0 0 0
0 0 0 0 0 0 0 0 0 0 0 0 0 0 0 0 0 0 0 0 0 0 0 1 2 3 3 2 0 0 0 0 0 0 0 0 1 1 2 1 2 3 2 1 0 0 0 0 1
0 0 0 0 0 0 0 0 0 0 0 0 0 0 0 0 0 0 0 0 0 0 0 1 2 3 3 2 1 0 1 1 1 0 0 1 2 3 2 2 2 3 3 2 1 0 0 0 1
0 0 0 0 0 0 0 0 1 1 1 0 0 0 0 0 0 0 0 0 0 0 0 0 1 2 2 2 1 1 2 2 2 1 1 2 3 3 3 2 3 3 3 2 1 0 0 0 1
0 0 0 0 0 0 0 0 1 1 1 0 0 0 0 0 0 0 0 0 0 0 0 0 0 1 1 1 2 2 2 2 2 2 2 3 3 3 2 2 2 2 2 1 1 0 0 0 0
0 0 0 0 0 0 1 1 1 0 0 0 0 0 0 0 0 0 0 0 0 0 0 0 0 0 0 1 2 2 2 1 1 2 3 3 2 2 1 1 1 2 1 0 0 0 0 0 0
0 0 0 0 0 0 1 1 0 0 0 0 0 0 0 0 0 0 0 0 0 0 0 0 0 0 0 0 1 2 1 0 1 2 2 1 1 1 1 1 1 1 1 0 0 0 0 0 0
0 0 0 0 0 0 0 0 0 0 0 0 0 1 1 1 1 1 1 0 0 0 0 0 0 0 0 0 0 1 1 0 0 1 1 0 0 0 0 1 1 1 0 0 0 0 0 0 0
0 0 0 0 0 0 0 0 0 0 0 0 1 2 2 2 2 3 3 1 1 0 0 0 0 0 0 0 0 0 0 0 0 0 0 0 0 0 0 0 0 0 0 0 0 0 0 0 0
0 0 0 0 0 0 0 0 0 0 0 1 3 4 3 3 4 5 5 4 3 2 0 0 0 0 0 0 0 0 0 0 0 0 0 0 0 0 0 0 0 0 0 0 0 0 0 0 0
0 0 0 0 0 0 0 0 0 0 0 2 4 5 4 3 4 4 5 6 5 3 1 0 0 0 0 0 0 0 0 0 0 0 0 0 0 0 0 0 0 0 0 0 0 0 0 0 0
0 0 0 0 0 0 1 0 0 0 0 2 3 4 3 3 2 3 3 5 5 4 1 0 0 0 0 0 0 0 0 0 0 1 1 1 0 0 0 0 0 0 0 0 0 0 0 0 0
0 0 0 0 0 0 0 0 0 0 0 1 1 2 1 1 2 2 2 3 5 4 1 0 0 0 0 0 0 0 0 0 0 1 1 1 0 0 0 1 1 1 0 0 0 0 0 0 0
0 0 0 0 0 0 0 0 0 0 0 0 0 0 1 2 2 2 2 3 5 4 3 1 1 1 0 0 0 0 0 0 0 1 2 2 1 1 1 2 2 1 0 0 0 0 0 0 0
0 0 0 0 0 0 0 0 0 0 0 0 0 0 1 2 3 3 3 3 4 3 3 2 1 1 0 0 0 0 0 1 1 2 4 4 3 2 2 3 2 1 0 0 0 0 0 0 1
0 0 0 0 0 0 0 0 0 0 0 0 0 0 1 2 3 4 3 3 2 2 2 2 1 0 0 0 0 0 0 1 2 3 5 5 4 2 2 2 2 1 0 0 0 0 0 1 2
0 0 0 0 0 0 0 0 0 0 0 0 0 0 1 2 3 3 3 2 2 2 2 2 1 0 0 0 0 1 1 2 3 3 4 4 2 1 1 1 1 0 0 0 0 0 1 2 3
0 0 0 0 0 0 0 0 1 0 0 0 0 1 2 3 3 2 2 2 3 3 3 3 1 0 0 0 1 3 3 3 4 3 3 3 2 0 0 0 0 0 0 0 0 0 1 3 3
0 0 0 0 0 0 0 0 1 1 0 0 1 2 3 3 2 1 1 3 5 4 4 3 3 2 1 0 1 4 5 5 5 4 3 3 2 0 0 0 0 0 0 0 0 1 2 3 3
0 0 0 0 0 0 0 0 0 1 0 1 3 4 3 2 1 1 2 5 6 4 4 4 4 4 3 3 3 5 7 7 5 4 4 3 1 0 0 0 0 0 0 0 1 2 3 3 3
0 0 0 0 0 0 0 0 0 0 0 2 4 5 3 2 2 2 3 5 5 4 4 6 6 6 6 6 6 8 9 9 7 6 5 4 1 0 0 0 0 0 1 1 2 3 3 3 3
0 0 0 0 0 0 0 0 0 0 0 2 5 5 4 3 4 5 4 4 5 4 5 7 8 7 7 7 8 10 11 11 9 7 5 3 1 0 0 0 1 1 2 3 3 3 3 3 3
0 0 0 0 0 0 0 0 0 0 0 2 4 4 3 5 7 7 5 3 4 4 6 8 9 9 9 9 11 13 14 13 10 7 4 3 1 0 0 1 2 3 3 3 3 3 3 3 3
0 0 0 0 0 0 0 0 0 1 1 1 3 3 3 6 8 7 4 2 3 5 8 10 11 12 12 13 14 15 15 14 11 6 4 2 1 0 1 2 2 3 3 3 3 3 2 2 2
0 0 0 0 0 0 0 0 1 2 2 1 3 4 4 7 9 8 3 2 4 7 10 13 14 15 15 15 16 16 16 14 11 8 4 2 0 0 1 1 1 2 2 2 2 1 1 1 1
0 0 0 0 0 0 0 1 2 3 3 2 4 6 7 7 8 7 4 3 6 11 14 16 16 17 16 15 16 17 15 13 11 9 6 3 1 0 0 1 1 1 1 1 1 1 0 0 0
0 0 0 0 0 0 0 1 2 3 3 3 5 8 9 8 8 6 4 5 9 13 16 18 18 17 15 15 16 16 14 12 10 9 8 5 1 0 0 0 1 1 0 1 2 2 1 0 0
Wind_Speed
8 6 3 1 5 7 5 5 4 4 4 4 7 8 7 6 4 4 1 3 4 3 3 6 10 11 11 11 12 13 13 14 14 14 14 15 15 16 16 15 15 16 16 16 16 15 14 14 14
5 5 1 4 7 5 4 4 6 5 4 4 6 8 7 6 5 4 2 3 4 4 3 5 9 10 11 11 12 13 13 14 14 14 14 15 15 15 15 15 15 15 16 15 15 14 14 14 14
5 2 3 6 5 3 3 2 5 5 4 4 5 6 6 4 3 3 2 4 5 4 3 5 10 10 10 11 11 12 13 14 14 14 14 14 14 14 14 14 14 15 15 15 14 14 13 13 13
3 3 5 7 7 3 4 4 5 5 6 7 5 6 5 4 3 3 5 5 6 4 3 5 9 10 10 10 11 12 13 13 13 13 13 13 13 13 14 14 14 14 14 13 13 13 12 12 12
3 5 7 6 5 4 4 4 3 5 5 6 6 6 4 4 6 7 5 5 5 4 4 4 9 9 10 11 11 12 12 12 12 13 12 12 12 13 13 13 13 12 12 12 12 12 11 11 11
5 6 6 4 4 4 3 4 6 8 6 5 6 5 3 3 5 5 5 5 4 4 4 4 8 9 10 10 11 11 11 11 12 12 12 12 12 12 12 12 12 11 11 11 10 10 10 10 10
5 5 4 4 4 3 3 3 4 6 5 4 4 5 2 2 3 5 5 5 4 4 4 4 4 5 8 9 10 10 10 10 10 10 10 10 11 11 11 10 11 10 9 9 9 9 9 9 8
4 6 4 3 4 3 4 3 4 5 5 4 4 6 4 4 5 6 5 5 4 4 4 4 4 5 4 5 8 9 9 8 9 9 9 9 9 9 9 8 8 8 8 8 7 7 7 7 6
4 6 3 4 6 4 5 5 3 4 6 3 3 4 6 9 8 6 5 3 2 2 2 3 3 3 3 3 4 5 6 7 7 6 8 7 4 4 4 5 7 7 6 6 6 5 5 5 5
5 4 5 4 6 7 6 5 5 5 4 4 6 7 10 10 8 6 5 4 2 2 1 1 2 2 2 2 3 3 3 3 4 4 4 4 3 2 3 4 4 4 4 4 4 5 4 3 2
4 4 2 3 6 8 6 4 3 8 3 5 9 12 11 9 7 6 5 4 3 2 2 1 1 1 2 2 2 2 2 2 2 3 3 3 2 2 2 2 2 3 3 3 3 3 2 1 1
4 2 4 5 6 6 6 5 4 3 4 7 11 13 12 10 8 7 6 4 3 3 3 2 2 1 1 1 1 1 1 1 1 1 2 2 1 1 1 1 1 1 1 1 2 1 1 1 1
4 3 4 6 8 6 6 5 4 2 6 10 11 11 10 9 7 5 5 4 3 4 3 3 2 2 1 1 0 1 1 1 1 1 1 1 1 0 0 0 0 1 1 1 1 1 1 1 1
4 6 6 6 6 4 6 4 4 3 8 10 10 9 8 8 7 5 5 5 5 4 4 3 3 3 2 1 0 1 1 1 1 0 1 2 1 1 0 0 1 1 1 1 1 1 1 1 1
6 8 7 4 4 3 6 3 1 5 9 9 8 8 7 6 6 7 7 6 6 5 4 4 4 3 2 2 1 1 1 1 1 0 1 2 2 2 1 1 1 0 1 1 1 2 1 1 1
5 6 3 0 2 3 6 2 3 7 9 8 7 7 6 6 6 6 6 5 5 4 4 4 4 4 3 2 1 1 1 1 1 0 1 1 2 2 2 1 1 0 1 1 1 1 1 1 1
5 3 2 1 2 3 4 3 4 6 8 8 8 7 6 5 5 5 6 6 6 5 5 4 3 4 4 3 2 1 1 1 1 1 1 1 1 2 2 1 1 1 1 1 1 1 1 1 1
4 3 2 4 3 4 3 3 4 7 8 8 7 6 6 7 8 6 5 5 5 5 4 4 3 3 3 2 2 1 1 1 1 1 0 1 1 2 2 1 1 1 1 1 1 1 1 1 1
6 5 3 4 3 4 4 4 5 7 6 6 7 7 7 8 5 4 5 5 5 4 4 4 4 3 3 2 1 1 0 0 0 0 1 1 1 1 2 1 1 1 1 1 2 1 1 0 1
5 4 2 0 1 4 2 2 3 6 8 7 8 8 8 6 4 5 5 5 6 6 5 4 4 4 3 2 2 2 1 1 1 0 1 0 1 1 1 1 1 1 1 1 1 2 1 0 1
3 5 5 3 3 4 3 3 1 3 3 4 5 6 7 9 8 7 7 6 6 6 6 6 4 4 3 3 2 2 2 2 1 1 1 1 1 1 1 1 1 1 1 1 1 2 2 1 1
3 4 5 5 5 0 2 2 5 3 4 6 7 7 8 8 7 7 7 7 7 7 6 5 5 4 3 4 3 3 2 2 1 1 0 1 1 1 1 1 1 1 0 1 1 1 1 2 1
4 3 5 4 5 3 2 2 7 1 5 9 9 9 9 8 7 8 8 8 7 6 6 6 5 4 4 4 4 4 2 2 1 1 1 0 0 0 0 1 1 1 0 1 1 1 1 1 2
6 8 8 7 5 1 3 3 7 5 8 7 8 9 8 7 7 7 6 6 5 5 5 5 5 4 4 4 4 4 4 2 1 1 1 0 0 0 0 0 1 1 1 1 1 1 1 2 2
5 8 5 4 3 5 2 3 9 8 8 9 9 8 8 7 7 7 7 7 7 7 7 6 6 5 5 5 4 4 4 3 3 2 1 1 0 0 1 0 0 0 1 1 1 1 1 1 1
4 9 9 6 5 4 1 5 9 5 5 5 5 5 6 7 7 7 8 7 7 8 7 7 7 6 5 5 4 3 3 2 2 2 2 1 1 1 1 0 0 1 1 1 0 0 1 0 1
6 3 6 8 3 0 4 7 8 2 1 1 3 5 6 7 7 7 7 7 7 7 8 8 8 6 5 5 4 3 3 3 2 2 2 1 1 1 1 1 1 0 1 1 0 0 0 1 1
5 9 6 7 6 2 4 4 5 5 4 3 4 6 6 5 6 6 6 6 6 6 6 7 7 6 5 5 4 4 3 3 2 2 1 1 1 0 1 1 1 2 2 2 2 2 2 2 1
4 4 6 5 6 7 3 8 7 8 7 7 8 7 7 7 6 6 5 5 5 5 6 6 6 6 5 5 4 3 3 3 2 2 1 1 1 1 1 2 2 2 3 3 3 3 3 3 3
4 6 8 6 4 4 4 9 6 5 6 6 7 6 6 6 5 5 5 5 5 6 6 6 6 6 6 5 5 4 3 3 3 2 2 2 2 2 3 3 3 3 3 3 3 3 4 4 4
Wind_Direction
152 144 143 113 56 52 44 28 53 59 49 44 62 71 73 50 59 101 347 68 68 55 40 72 80 83 84 85 88 91 94 97 98 98 99 101 103 105 105 107 109 110 109 108 107 109 109 111 113
147 148 131 60 70 63 31 29 64 69 115 119 70 62 62 52 54 89 74 63 73 66 48 77 84 84 85 86 90 93 96 99 99 99 100 101 101 103 106 107 108 109 110 109 109 108 108 109 111
155 159 78 64 71 101 105 76 98 95 80 63 67 56 59 61 76 97 105 97 74 61 46 80 86 87 87 88 93 95 98 101 102 101 100 102 103 104 106 108 109 109 109 109 108 109 109 109 110
136 58 54 64 66 71 123 129 122 103 58 47 72 62 55 56 100 111 111 99 81 60 48 79 88 89 89 90 94 98 99 101 102 102 102 103 105 107 108 108 108 109 110 109 109 109 108 110 112
68 70 60 55 51 59 82 111 90 78 69 63 74 78 51 29 84 101 102 96 87 64 45 71 89 88 88 91 94 98 99 101 101 101 102 102 104 107 109 109 109 110 111 111 110 110 110 111 112
59 67 75 75 72 72 80 89 90 86 91 88 77 80 56 77 99 107 95 89 85 75 52 58 88 90 90 92 95 98 100 100 101 102 103 103 103 105 107 109 111 111 111 111 111 111 111 111 112
93 84 99 115 105 107 133 103 99 108 96 86 96 89 88 112 116 109 91 84 77 67 56 44 53 75 89 93 96 97 98 101 101 103 104 105 105 106 106 107 110 111 111 112 115 115 112 112 113
115 94 87 111 129 137 137 109 109 111 102 115 106 123 159 177 128 102 88 81 77 63 52 47 49 50 54 72 95 101 101 103 105 106 106 104 103 102 103 104 108 109 111 113 116 116 114 113 115
88 79 132 173 158 148 142 125 122 89 108 102 91 125 146 136 125 110 98 82 82 83 46 47 51 52 55 60 84 93 100 99 98 95 98 87 70 70 84 102 109 107 107 109 110 112 112 110 113
82 113 193 185 157 142 138 134 140 113 108 88 84 95 120 134 140 139 139 145 153 146 109 68 63 52 45 63 60 47 55 64 68 66 69 69 64 61 70 75 95 99 98 95 91 92 93 87 93
106 146 160 122 129 127 128 130 122 127 148 170 151 145 144 148 154 159 162 170 180 166 157 150 119 76 56 43 57 50 54 59 61 71 74 71 58 52 49 45 45 46 56 59 63 65 67 80 103
104 91 123 126 122 124 133 129 118 158 188 156 149 150 154 162 173 178 179 183 174 164 179 177 150 123 104 65 50 65 72 71 76 80 90 89 71 51 48 56 46 41 44 50 48 62 63 83 114
86 82 76 104 107 111 105 111 120 110 116 125 135 148 164 173 181 186 180 176 173 181 190 184 169 169 160 111 49 98 103 104 117 122 111 124 123 107 66 42 41 45 69 71 57 57 54 64 84
91 81 79 87 95 102 107 92 91 134 131 136 149 161 173 179 178 175 177 184 188 191 193 180 174 177 159 152 156 109 111 104 91 147 158 152 151 154 135 24 43 37 58 70 81 72 67 55 83
87 78 59 59 82 104 103 70 152 156 145 153 167 173 178 186 183 188 191 190 192 189 182 182 180 160 158 170 184 158 135 123 121 202 179 170 164 164 159 131 77 26 42 63 68 62 63 56 63
62 69 86 269 99 115 115 191 205 156 158 171 183 186 190 198 199 198 190 186 182 176 173 185 185 159 162 163 164 129 119 125 141 192 171 180 172 157 141 143 161 167 116 106 99 85 67 52 60
47 108 151 187 170 138 135 206 199 170 174 186 192 194 196 205 214 207 190 180 177 175 170 174 175 159 163 158 132 119 100 108 128 121 135 147 154 147 142 148 169 141 117 108 123 104 124 115 73
176 153 166 200 201 147 170 214 187 184 188 198 197 196 198 208 218 205 190 179 172 169 169 173 173 163 150 132 106 83 64 56 78 113 160 151 146 153 147 150 166 145 130 118 133 136 121 135 124
149 146 176 219 195 155 195 215 198 188 195 201 199 198 205 218 217 190 186 175 164 167 175 179 173 168 144 130 135 125 140 109 72 141 171 166 156 154 159 166 163 161 161 177 166 140 132 135 129
130 134 170 268 143 145 178 251 212 193 201 200 198 203 205 210 204 194 187 178 175 180 184 183 184 175 170 157 148 149 144 139 126 54 41 131 165 183 171 151 162 177 168 151 157 150 144 197 147
161 171 177 157 81 64 89 344 254 223 208 208 204 204 207 204 203 199 192 190 183 185 185 187 188 188 184 161 124 99 75 52 54 39 21 13 118 128 118 151 149 141 156 180 193 176 177 202 211
211 206 162 139 115 119 121 257 275 233 228 222 219 209 213 213 205 197 194 193 192 191 180 175 177 183 179 161 159 161 162 178 207 165 106 10 64 84 110 127 132 137 157 190 214 187 190 184 223
188 115 111 112 115 78 46 148 282 219 232 233 223 214 214 207 198 197 198 196 193 182 175 176 174 181 178 171 173 170 177 183 158 118 121 60 46 73 174 164 135 131 192 247 233 192 198 195 200
125 78 60 50 70 81 222 164 268 226 219 226 219 214 210 200 193 193 190 178 177 168 169 169 167 178 177 173 174 179 189 185 148 140 157 174 7 350 308 192 165 167 196 242 251 220 211 219 212
99 95 54 18 17 247 249 190 248 244 228 216 211 206 202 187 182 183 177 176 176 173 174 170 170 182 180 174 180 188 191 183 184 195 192 189 207 280 274 227 181 219 234 240 244 226 246 222 222
157 135 152 178 205 263 295 229 251 261 249 219 197 183 174 175 178 181 182 181 182 181 177 172 175 186 184 180 183 182 180 174 182 190 185 192 219 238 251 159 168 228 240 247 225 228 254 219 239
132 144 150 125 140 160 274 282 298 304 341 159 173 166 176 179 178 179 177 177 179 179 181 179 177 179 180 178 168 163 167 170 181 182 171 188 231 211 90 91 83 38 46 51 81 58 356 48 35
128 139 104 115 138 219 284 269 247 252 240 209 193 190 189 177 171 174 176 177 176 177 174 169 169 172 170 164 164 160 161 166 163 149 167 169 178 128 95 77 55 41 45 51 68 55 43 59 32
100 92 102 108 143 152 219 263 230 221 217 207 207 199 188 181 178 178 176 171 163 158 160 162 160 156 154 156 153 149 146 139 131 129 141 142 121 109 100 85 70 59 53 57 73 67 58 61 48
147 156 145 146 189 167 172 261 270 233 223 207 202 193 185 178 171 168 162 152 150 156 157 160 160 158 157 151 144 141 131 125 122 120 116 105 98 93 91 83 74 70 66 64 72 70 63 64 57